Location: Guilderland
(42.7045°N, 73.9115°W)
Time: 15:19:03
(UTC+00:00)

Cosmos 1340 Rocket - Pass Details

Date: 24 January 2020
Orbit: 530 x 558 km, 81.2° (Epoch: 26 February)

Event Time Altitude Azimuth Distance (km) Brightness Sun altitude
Rises 22:32:56 0° 347° (NNW) 2,700 6.3 -6.8°
Reaches altitude 10° 22:35:06 10° 345° (NNW) 1,808 5.4 -7.1°
Maximum altitude 22:39:03 70° 263° (W) 580 3.2 -7.8°
Drops below altitude 10° 22:43:01 10° 179° (S) 1,809 5.7 -8.5°
Sets 22:45:11 0° 177° (S) 2,702 6.6 -8.9°
